Terminal Aerodrome Forecast
Issued by NWS

Home | Current Version | Previous Version | Graphics & Text | Print | Product List | Glossary On
Versions: 1 2 3 4 5 6 7 8 9 10 11 12 13 14 15 16 17 18 19 20 21 22 23 24 25 26 27 28 29
000
FTUS43 KABR 020351 AAA
TAFMBG
TAF AMD
KMBG 020351Z 0204/0224 15016KT P6SM SKC
     FM020900 14015KT P6SM VCTS SCT025 BKN080CB OVC150
     FM021200 15014KT P6SM OVC050
     FM022300 VRB06KT P6SM VCTS SCT035 BKN070CB OVC120=

USA.gov is the U.S. government's official web portal to all federal, state and local government web resources and services.